St. Petersburg, FL

5:18 AM EDT on July 25, 2017 (GMT -0400)
Whitted

Weather History for KSPG - November, 2010

Change the Weather History Date:

Wednesday, November 17, 2010

  Actual Average Record
Temperature  
Mean Temperature 73 °F -  
Max Temperature 78 °F 77 °F 85 °F (1957)
Min Temperature 68 °F 62 °F 43 °F (1970)
Cooling Degree Days 8    
Growing Degree Days 23 (Base 50)    
Moisture  
Dew Point 66 °F    
Average Humidity 83    
Maximum Humidity 94    
Minimum Humidity 62    
Precipitation  
Precipitation 0.00 in - - ()
Sea Level Pressure  
Sea Level Pressure 30.03 in    
Wind  
Wind Speed 4 mph (East)    
Max Wind Speed 8 mph    
Max Gust Speed -    
Visibility 9 miles    
Events Fog    
Averages and records for this station are not official NWS values.
T = Trace of Precipitation, MM = Missing Value Source: NWS Daily Summary

Daily Weather History Graph

Daily Weather History Graph

Search for Another Location

Airport or City:

Trip Planner

Search our weather history database for the weather conditions in past years. The results will help you decide how hot, cold, wet, or windy it might be!

Date:

Astronomy

Nov. 17, 2010 Rise Set
Actual Time 6:53 AM EST 5:37 PM EST
Civil Twilight 6:28 AM EST 6:02 PM EST
Nautical Twilight 6:00 AM EST 6:30 PM EST
Astronomical Twilight 5:32 AM EST 6:58 PM EST
Moon 2:55 PM EST (11/17) 3:07 AM EST (11/17)
Length of Visible Light 11h 33m
Length of Day
10h 44m
Waxing Gibbous, 85% of the Moon is Illuminated
Nov 17
Waxing Gibbous
Nov 21
Full
Nov 28
Last Quarter
Dec 5
New
Dec 13
First Quarter

Hourly Weather History & Observations

Time (EST) Temp. Dew Point Humidity Pressure Visibility Wind Dir Wind Speed Gust Speed Precip Events Conditions
12:53 AM 69.1 °F 66.9 °F 93% 29.96 in 10.0 mi South 8.1 mph - N/A   Partly Cloudy
1:53 AM 69.1 °F 66.9 °F 93% 29.96 in 10.0 mi Calm Calm - N/A   Partly Cloudy
2:53 AM 69.1 °F 66.0 °F 90% 29.96 in 10.0 mi South 4.6 mph - N/A   Mostly Cloudy
3:53 AM 69.1 °F 66.0 °F 90% 29.96 in 10.0 mi Calm Calm - N/A   Overcast
4:53 AM 69.1 °F 66.9 °F 93% 29.97 in 10.0 mi Calm Calm - N/A   Mostly Cloudy
5:53 AM 69.1 °F 66.9 °F 93% 29.99 in 10.0 mi Calm Calm - N/A   Clear
6:53 AM 68.0 °F 66.0 °F 93% 30.01 in 10.0 mi Calm Calm - N/A   Clear
7:53 AM 70.0 °F 66.9 °F 90% 30.03 in 10.0 mi Calm Calm - N/A   Clear
8:53 AM 70.0 °F 66.9 °F 90% 30.05 in 10.0 mi SSE 3.5 mph - N/A   Clear
9:45 AM 69.8 °F 66.2 °F 88% 30.07 in 10.0 mi SE 4.6 mph - N/A   Partly Cloudy
9:53 AM 71.1 °F 68.0 °F 90% 30.07 in 1.8 mi South 5.8 mph - N/A   Partly Cloudy
9:56 AM 69.8 °F 66.2 °F 88% 30.07 in 0.8 mi South 4.6 mph - N/A   Mist
10:06 AM 69.8 °F 68.0 °F 94% 30.07 in 0.2 mi SSE 3.5 mph - N/A Fog Fog
10:31 AM 69.8 °F 66.2 °F 88% 30.07 in 7.0 mi Calm Calm - N/A   Partly Cloudy
10:53 AM 70.0 °F 68.0 °F 93% 30.06 in 7.0 mi Calm Calm - N/A   Partly Cloudy
11:53 AM 73.9 °F 69.1 °F 85% 30.04 in 10.0 mi ESE 4.6 mph - N/A   Clear
12:53 PM 75.0 °F 69.1 °F 82% 30.02 in 10.0 mi East 6.9 mph - N/A   Clear
1:53 PM 77.0 °F 68.0 °F 74% 30.01 in 10.0 mi East 5.8 mph - N/A   Partly Cloudy
2:53 PM 78.1 °F 68.0 °F 71% 30.01 in 10.0 mi East 3.5 mph - N/A   Partly Cloudy
3:53 PM 77.0 °F 68.0 °F 74% 30.01 in 10.0 mi ENE 3.5 mph - N/A   Clear
4:53 PM 78.1 °F 66.0 °F 66% 30.02 in 10.0 mi NNE 5.8 mph - N/A   Clear
5:53 PM 75.0 °F 61.0 °F 62% 30.05 in 10.0 mi North 8.1 mph - N/A   Clear
6:53 PM 73.9 °F 62.1 °F 66% 30.07 in 10.0 mi North 6.9 mph - N/A   Overcast
7:53 PM 72.0 °F 62.1 °F 71% 30.08 in 10.0 mi NNE 8.1 mph - N/A   Overcast
9:53 PM 71.1 °F 61.0 °F 70% 30.10 in 10.0 mi NNE 6.9 mph - N/A   Partly Cloudy
10:53 PM 70.0 °F 61.0 °F 73% 30.10 in 10.0 mi NNE 5.8 mph - N/A   Mostly Cloudy
11:53 PM 70.0 °F 61.0 °F 73% 30.09 in 10.0 mi North 4.6 mph - N/A   Scattered Clouds